Weather History for Brisbane Airport M. O, Queensland

Change the Weather History Date:

Friday, September 13, 2013

  Actual Average Record
Temperature  
Mean Temperature 67 °F -  
Max Temperature 75 °F 76 °F - ()
Min Temperature 59 °F 57 °F - ()
Cooling Degree Days 2    
Growing Degree Days 17 (Base 50)    
Moisture  
Dew Point 60 °F    
Average Humidity 76    
Maximum Humidity 100    
Minimum Humidity 47    
Precipitation  
Precipitation 0.00 in 0.08 in - ()
Sea Level Pressure  
Sea Level Pressure 30.01 in    
Wind  
Wind Speed 7 mph ()    
Max Wind Speed 15 mph    
Max Gust Speed -    
Visibility 6.7 miles    
Events Rain    
T = Trace of Precipitation, MM = Missing Value Source: Averaged Metar Reports

Daily Weather History Graph

Daily Weather History Graph

Search for Another Location

Airport:

Trip Planner

Search our weather history database for the weather conditions in past years. The results will help you decide how hot, cold, wet, or windy it might be!

Date:

Astronomy

Sep. 13, 2013 Rise Set
Actual Time 5:47 AM AEST 5:39 PM AEST
Civil Twilight 5:24 AM AEST 6:02 PM AEST
Nautical Twilight 4:57 AM AEST 6:29 PM AEST
Astronomical Twilight 4:30 AM AEST 6:56 PM AEST
Moon 11:15 AM AEST (9/13) 12:13 AM AEST (9/13)
Length of Visible Light 12h 38m
Length of Day
11h 51m
First Quarter, 54% of the Moon is Illuminated
Sep 13
First Quarter
Sep 19
Full
Sep 27
Last Quarter
Oct 5
New
Oct 12
First Quarter

Hourly Weather History & Observations

Time (AEST) Temp. Dew Point Humidity Pressure Visibility Wind Dir Wind Speed Gust Speed Precip Events Conditions
12:00 AM 62 °F 60 °F 92% 29.92 in 9 mi SSW 5.8 mph - -   Haze
12:00 AM 62.6 °F 60.8 °F 94% 29.92 in 6.2 mi SSW 5.8 mph - N/A   Partly Cloudy
12:30 AM 64.4 °F 62.6 °F 94% 29.92 in - South 5.8 mph - N/A   Clear
1:00 AM 62 °F 61 °F 95% 29.92 in - SSW 2.3 mph - -  
1:00 AM 62.6 °F 60.8 °F 94% 29.92 in - SSW 2.3 mph - N/A   Clear
1:30 AM 60.8 °F 59.0 °F 94% 29.92 in - SW 5.8 mph - N/A   Clear
2:00 AM 60.8 °F 60.8 °F 100% 29.92 in - WSW 5.8 mph - N/A   Clear
2:30 AM 60.8 °F 59.0 °F 94% 29.95 in - SW 5.8 mph - N/A   Clear
3:00 AM 63 °F 62 °F 96% 29.94 in 8 mi SSW 6.9 mph - -   Partly Cloudy
3:00 AM 62.6 °F 62.6 °F 100% 29.92 in - SSW 6.9 mph - N/A   Clear
3:30 AM 64.4 °F 62.6 °F 94% 29.92 in - NNW 3.5 mph - N/A   Clear
4:00 AM 63 °F 62 °F 93% 29.94 in - Calm Calm - -  
4:00 AM 62.6 °F 60.8 °F 94% 29.92 in - Calm Calm - N/A   Clear
4:30 AM 62.6 °F 60.8 °F 94% 29.95 in 6.2 mi SSE 1.2 mph - N/A Rain Light Rain
5:00 AM 62.6 °F 62.6 °F 100% 29.95 in 6.2 mi North 1.2 mph - N/A   Scattered Clouds
5:30 AM 62.6 °F 62.6 °F 100% 29.98 in - SSW 5.8 mph - N/A   Clear
6:00 AM 63 °F 62 °F 94% 29.98 in 6 mi North 5.8 mph - -   Mostly Cloudy
6:00 AM 62.6 °F 62.6 °F 100% 29.98 in 6.2 mi North 5.8 mph - N/A   Mostly Cloudy
6:30 AM 64.4 °F 62.6 °F 94% 29.98 in 5.6 mi North 2.3 mph - N/A   Mostly Cloudy
7:00 AM 64.4 °F 62.6 °F 94% 30.01 in 5.6 mi ESE 4.6 mph - N/A   Mostly Cloudy
7:30 AM 66.2 °F 64.4 °F 94% 30.01 in 5.6 mi South 4.6 mph - N/A   Mostly Cloudy
8:00 AM 68.0 °F 64.4 °F 88% 30.01 in 5.6 mi Calm Calm - N/A   Scattered Clouds
8:30 AM 73.4 °F 60.8 °F 65% 30.04 in - SSW 2.3 mph - N/A   Clear
9:00 AM 75.2 °F 57.2 °F 53% 30.04 in 6.2 mi ESE 8.1 mph - N/A   Partly Cloudy
9:30 AM 73.4 °F 62.6 °F 69% 30.04 in 6.2 mi ESE 9.2 mph - N/A   Partly Cloudy
10:00 AM 74 °F 62 °F 57% 30.05 in - ESE 12.7 mph - -  
10:00 AM 73.4 °F 62.6 °F 69% 30.04 in 6.2 mi ESE 12.7 mph - N/A   Partly Cloudy
10:30 AM 75.2 °F 62.6 °F 65% 30.04 in 6.2 mi ESE 13.8 mph - N/A   Partly Cloudy
11:00 AM 73.4 °F 60.8 °F 65% 30.04 in 6.2 mi ESE 13.8 mph - N/A   Partly Cloudy
11:30 AM 73.4 °F 59.0 °F 61% 30.04 in 6.2 mi ESE 13.8 mph - N/A   Mostly Cloudy
12:00 PM 75 °F 59 °F 47% 30.04 in 12 mi ESE 15.0 mph - -   Smoke
12:00 PM 75.2 °F 59.0 °F 57% 30.04 in 6.2 mi ESE 15.0 mph - N/A   Partly Cloudy
12:30 PM 73.4 °F 57.2 °F 57% 30.04 in 6.2 mi ESE 12.7 mph - N/A   Partly Cloudy
1:00 PM 75.2 °F 60.8 °F 61% 30.04 in 6.2 mi ESE 15.0 mph - N/A   Partly Cloudy
1:30 PM 73.4 °F 59.0 °F 61% 30.01 in 6.2 mi ESE 13.8 mph - N/A   Partly Cloudy
2:00 PM 73.4 °F 60.8 °F 65% 30.01 in 6.2 mi ESE 12.7 mph - N/A   Partly Cloudy
2:30 PM 71.6 °F 59.0 °F 64% 30.01 in 6.2 mi ESE 15.0 mph - N/A   Partly Cloudy
3:00 PM 73 °F 58 °F 50% 30.01 in 9 mi ESE 12.7 mph - -   Haze
3:00 PM 73.4 °F 59.0 °F 61% 30.01 in 6.2 mi ESE 12.7 mph - N/A   Partly Cloudy
3:30 PM 71.6 °F 59.0 °F 64% 30.01 in 6.2 mi East 11.5 mph - N/A   Mostly Cloudy
4:00 PM 71 °F 58 °F 54% 30.03 in - East 10.4 mph - -  
4:00 PM 69.8 °F 57.2 °F 64% 30.01 in 6.2 mi East 10.4 mph - N/A   Mostly Cloudy
4:30 PM 69.8 °F 59.0 °F 68% 30.04 in 6.2 mi East 11.5 mph - N/A   Scattered Clouds
5:00 PM 69.8 °F 59.0 °F 68% 30.04 in 6.2 mi ESE 11.5 mph - N/A   Scattered Clouds
5:30 PM 68.0 °F 59.0 °F 73% 30.04 in 6.2 mi East 9.2 mph - N/A   Scattered Clouds
6:00 PM 68 °F 59 °F 64% 30.06 in 11 mi East 8.1 mph - -   Haze
6:00 PM 68.0 °F 59.0 °F 73% 30.04 in 6.2 mi East 8.1 mph - N/A   Mostly Cloudy
6:30 PM 68.0 °F 59.0 °F 73% 30.04 in 6.2 mi East 10.4 mph - N/A   Scattered Clouds
7:00 PM 68 °F 59 °F 66% 30.06 in - East 9.2 mph - -  
7:00 PM 68.0 °F 59.0 °F 73% 30.04 in 6.2 mi East 9.2 mph - N/A   Mostly Cloudy
7:30 PM 68.0 °F 59.0 °F 73% 30.04 in 6.2 mi East 8.1 mph - N/A   Mostly Cloudy
8:00 PM 68.0 °F 57.2 °F 68% 30.06 in 6.2 mi East 9.2 mph - N/A   Mostly Cloudy
8:30 PM 68.0 °F 59.0 °F 73% 30.06 in 6.2 mi East 8.1 mph - N/A   Mostly Cloudy
9:00 PM 68 °F 58 °F 64% 30.09 in 12 mi East 9.2 mph - -   Haze
9:00 PM 68.0 °F 59.0 °F 73% 30.06 in 6.2 mi East 9.2 mph - N/A   Mostly Cloudy
9:30 PM 68.0 °F 57.2 °F 68% 30.09 in 6.2 mi East 9.2 mph - N/A   Mostly Cloudy
10:00 PM 68 °F 58 °F 63% 30.10 in - East 9.2 mph - -  
10:00 PM 68.0 °F 59.0 °F 73% 30.09 in 6.2 mi East 9.2 mph - N/A   Scattered Clouds
10:30 PM 68.0 °F 59.0 °F 73% 30.09 in 6.2 mi ESE 6.9 mph - N/A   Mostly Cloudy
11:00 PM 68.0 °F 59.0 °F 73% 30.06 in 6.2 mi East 8.1 mph - N/A   Mostly Cloudy
11:30 PM 68.0 °F 59.0 °F 73% 30.06 in 6.2 mi East 9.2 mph - N/A   Mostly Cloudy